ABS-4 (MOBISAT-1)

Last updated on Thu Nov 21 2024 00:02:40 GMT+0000 (Coordinated Universal Time)

1 28184U 04007A 24324.95002865 .00000040 00000+0 00000+0 0 9996 2 28184 4.5798 78.9630 0007332 172.1018 211.4353 1.00273821 46582
UTC large
Height (km)
Speed (km/s)
/
Latitude / Longitude
Inclination (degrees)
Orbital Period (minutes)
Azimuth
Elevation
Range (km)
Doppler Factor

Next 0 passes for location: London (51.5072 / 0.1276)

Sorry there are no passes over London.